NUSAT-19 (ROSALIND)

Last updated on Thu Oct 24 2024 00:03:46 GMT+0000 (Coordinated Universal Time)

1 48905U 21059AC 24296.61818680 .04522767 25779-5 12081-2 0 9996 2 48905 97.5682 99.7066 0008022 275.1764 84.8613 16.28290639185837

Satellite not in orbit